Location: Unspecified
(0.0000°N, 0.0000°E)
Time: 05:59:56
(UTC+00:00)

Explorer 11/Cluster Stage 4 - Pass Details

Date: 22 September 2019
Orbit: 467 x 1259 km, 28.8° (Epoch: 14 October)

Event Time Altitude Azimuth Distance (km) Brightness Sun altitude
Rises 18:54:27 0° 263° (W) 4,186 12.1 -15.4°
Reaches altitude 10° 18:57:57 10° 274° (W) 3,175 11.0 -16.3°
Maximum altitude 19:04:31 28° 329° (NNW) 1,987 8.9 -17.9°
Drops below altitude 10° 19:10:24 10° 26° (NNE) 2,805 9.1 -19.4°
Enters shadow 19:11:22 - 31° (NNE) 3,061 9.3 -19.7°
